| time (UTC) | temp F | wind direction | speed MPH | gust MPH | rain 1hr in | rain 24hr in | rain mn in | humidity % | barometer mb |
| 20260505101529 | 59 | 101 | 1.0 | 4.0 | 0.00 | 0.00 | 0.00 | 67 | 1014.8 |
| 20260505100035 | 58 | 110 | 1.0 | 7.0 | 0.00 | 0.00 | 0.00 | 67 | 1014.8 |
| 20260505094513 | 59 | 96 | 3.0 | 6.0 | 0.00 | 0.00 | 0.00 | 67 | 1014.8 |
| 20260505093011 | 59 | 100 | 3.0 | 5.0 | 0.00 | 0.00 | 0.00 | 66 | 1015.0 |
| 20260505091514 | 59 | 100 | 4.0 | 6.0 | 0.00 | 0.00 | 0.00 | 67 | 1015.0 |
| 20260505090007 | 60 | 120 | 3.0 | 6.0 | 0.00 | 0.00 | 0.00 | 63 | 1015.0 |
| 20260505084506 | 61 | 27 | 5.0 | 10.0 | 0.00 | 0.00 | 0.00 | 60 | 1014.7 |
| 20260505083004 | 61 | 60 | 5.0 | 8.0 | 0.00 | 0.00 | 0.00 | 61 | 1014.5 |
| 20260505081629 | 61 | 24 | 5.0 | 10.0 | 0.00 | 0.00 | 0.00 | 61 | 1014.4 |
| 20260505074556 | 62 | 65 | 7.0 | 18.0 | 0.00 | 0.00 | 0.00 | 58 | 1014.1 |
| 20260505073058 | 62 | 68 | 6.0 | 14.0 | 0.00 | 0.00 | 0.00 | 58 | 1014.1 |
| 20260505071555 | 63 | 46 | 7.0 | 15.0 | 0.00 | 0.00 | 0.00 | 58 | 1014.3 |
| 20260505070053 | 63 | 39 | 5.0 | 14.0 | 0.00 | 0.00 | 0.00 | 58 | 1014.3 |
| 20260505064547 | 63 | 16 | 8.0 | 14.0 | 0.00 | 0.00 | 0.00 | 59 | 1014.2 |
| 20260505063049 | 63 | 8 | 6.0 | 14.0 | 0.00 | 0.00 | 0.00 | 59 | 1014.3 |
| 20260505061545 | 63 | 94 | 6.0 | 14.0 | 0.00 | 0.00 | 0.00 | 59 | 1014.3 |
| 20260505060039 | 63 | 46 | 8.0 | 14.0 | 0.00 | 0.00 | 0.00 | 59 | 1014.2 |
| 20260505054544 | 63 | 9 | 4.0 | 13.0 | 0.00 | 0.00 | 0.00 | 60 | 1014.2 |
| 20260505053040 | 64 | 17 | 5.0 | 13.0 | 0.00 | 0.00 | 0.00 | 59 | 1014.3 |
| 20260505051539 | 64 | 47 | 5.0 | 10.0 | 0.00 | 0.00 | 0.00 | 59 | 1014.2 |
| 20260505041525 | 64 | 94 | 4.0 | 10.0 | 0.00 | 0.00 | 0.00 | 59 | 1013.9 |
| 20260505040021 | 65 | 6 | 4.0 | 14.0 | 0.00 | 0.00 | 0.00 | 58 | 1014.0 |
| 20260505034520 | 65 | 24 | 6.0 | 11.0 | 0.00 | 0.00 | 0.00 | 58 | 1014.1 |
| 20260505033020 | 66 | 18 | 4.0 | 12.0 | 0.00 | 0.00 | 0.00 | 57 | 1014.1 |
| 20260505031522 | 66 | 34 | 5.0 | 12.0 | 0.00 | 0.00 | 0.00 | 56 | 1014.2 |
| 20260505030019 | 66 | 51 | 6.0 | 15.0 | 0.00 | 0.00 | 0.00 | 55 | 1014.3 |
| 20260505024518 | 67 | 48 | 4.0 | 10.0 | 0.00 | 0.00 | 0.00 | 54 | 1014.4 |
| 20260505023021 | 68 | 44 | 5.0 | 12.0 | 0.00 | 0.00 | 0.00 | 53 | 1014.5 |
| 20260505021516 | 68 | 62 | 6.0 | 14.0 | 0.00 | 0.00 | 0.00 | 51 | 1014.4 |
| 20260505020015 | 69 | 47 | 7.0 | 18.0 | 0.00 | 0.00 | 0.00 | 52 | 1014.2 |
| 20260505014515 | 69 | 53 | 7.0 | 14.0 | 0.00 | 0.00 | 0.00 | 53 | 1014.2 |
| 20260505013015 | 69 | 115 | 6.0 | 15.0 | 0.00 | 0.00 | 0.00 | 53 | 1014.1 |
| 20260505011520 | 70 | 63 | 8.0 | 15.0 | 0.00 | 0.00 | 0.00 | 52 | 1014.0 |
| 20260505010023 | 70 | 71 | 6.0 | 13.0 | 0.00 | 0.00 | 0.00 | 51 | 1013.8 |
| 20260505004513 | 70 | 56 | 6.0 | 11.0 | 0.00 | 0.00 | 0.00 | 50 | 1013.6 |
| 20260505003012 | 71 | 59 | 7.0 | 11.0 | 0.00 | 0.00 | 0.00 | 48 | 1013.6 |
| 20260505001512 | 72 | 80 | 7.0 | 12.0 | 0.00 | 0.00 | 0.00 | 46 | 1013.6 |
| 20260505000016 | 73 | 74 | 5.0 | 15.0 | 0.00 | 0.00 | 0.00 | 45 | 1013.5 |
| 20260504234511 | 73 | 40 | 5.0 | 12.0 | 0.00 | 0.00 | 0.00 | 46 | 1013.5 |
| 20260504233009 | 73 | 73 | 4.0 | 11.0 | 0.00 | 0.00 | 0.00 | 46 | 1013.5 |
| 20260504231509 | 73 | 78 | 6.0 | 12.0 | 0.00 | 0.00 | 0.00 | 45 | 1013.5 |
| 20260504230008 | 73 | 56 | 6.0 | 11.0 | 0.00 | 0.00 | 0.00 | 45 | 1013.5 |
| 20260504224507 | 73 | 24 | 6.0 | 13.0 | 0.00 | 0.00 | 0.00 | 44 | 1013.5 |
| 20260504223005 | 73 | 84 | 8.0 | 17.0 | 0.00 | 0.00 | 0.00 | 42 | 1013.7 |
| 20260504221517 | 74 | 45 | 5.0 | 14.0 | 0.00 | 0.00 | 0.00 | 41 | 1013.7 |
| 20260504220004 | 75 | 86 | 6.0 | 16.0 | 0.00 | 0.00 | 0.00 | 39 | 1013.7 |
| 20260504214503 | 76 | 92 | 3.0 | 17.0 | 0.00 | 0.00 | 0.00 | 40 | 1013.7 |
| 20260504213002 | 75 | 269 | 7.0 | 16.0 | 0.00 | 0.00 | 0.00 | 41 | 1013.7 |
| 20260504211559 | 76 | 110 | 3.0 | 11.0 | 0.00 | 0.00 | 0.00 | 43 | 1013.9 |
| 20260504210058 | 75 | 150 | 4.0 | 13.0 | 0.00 | 0.00 | 0.00 | 44 | 1014.0 |
| 20260504204604 | 76 | 353 | 5.0 | 13.0 | 0.00 | 0.00 | 0.00 | 43 | 1014.3 |
| 20260504203055 | 75 | 63 | 3.0 | 17.0 | 0.00 | 0.00 | 0.00 | 45 | 1014.4 |
| 20260504201553 | 76 | 71 | 4.0 | 12.0 | 0.00 | 0.00 | 0.00 | 43 | 1014.4 |
| 20260504200050 | 75 | 127 | 4.0 | 15.0 | 0.00 | 0.00 | 0.00 | 46 | 1014.8 |
| 20260504194555 | 74 | 153 | 8.0 | 15.0 | 0.00 | 0.00 | 0.00 | 45 | 1014.8 |
| 20260504193045 | 75 | 220 | 7.0 | 13.0 | 0.00 | 0.00 | 0.00 | 46 | 1015.1 |
| 20260504191543 | 74 | 227 | 3.0 | 8.0 | 0.00 | 0.00 | 0.00 | 46 | 1015.4 |
| 20260504190041 | 74 | 98 | 2.0 | 12.0 | 0.00 | 0.00 | 0.00 | 47 | 1015.6 |
| 20260504184538 | 74 | 87 | 3.0 | 10.0 | 0.00 | 0.00 | 0.00 | 44 | 1015.8 |
| 20260504183035 | 74 | 20 | 8.0 | 15.0 | 0.00 | 0.00 | 0.00 | 44 | 1016.1 |
| 20260504181537 | 73 | 53 | 3.0 | 13.0 | 0.00 | 0.00 | 0.00 | 46 | 1016.2 |
| 20260504180035 | 74 | 98 | 2.0 | 7.0 | 0.00 | 0.00 | 0.00 | 45 | 1016.4 |
| 20260504174530 | 73 | 53 | 5.0 | 12.0 | 0.00 | 0.00 | 0.00 | 45 | 1016.6 |
| 20260504173030 | 72 | 81 | 0.0 | 8.0 | 0.00 | 0.00 | 0.00 | 47 | 1016.8 |
| 20260504171530 | 69 | 216 | 1.0 | 15.0 | 0.00 | 0.00 | 0.00 | 50 | 1017.0 |
| 20260504150112 | 63 | 53 | 7.0 | 20.0 | 0.00 | 0.00 | 0.00 | 52 | 1018.8 |